Preston, Minnesota, United States (55965)
Lat: 43.67N, Lon: 92.08W
Wx Zone: MNZ095
Local Info
Past Weather Observations for Monday, May 23, 2016

NOTE: This archive is for the closest National Weather Service station to Preston. Information may differ from the station used for current weather conditions.

Click here for Long-term Archive

Time Weather Temperature Dewpoint Humidity Pressure Winds Precip Visibility
23:54
Overcast
63°F / 17°C 61°F / 16°C 94% 29.89 in
(1012 mb)
SW 3.5 mph
(SW 6 kph)
- 10SM
23:35
Mostly Cloudy
63°F / 17°C 61°F / 16°C 94% 29.89 in
(1012 mb)
SW 3.5 mph
(SW 6 kph)
- 10SM
23:15
Mostly Cloudy
63°F / 17°C 61°F / 16°C 94% 29.89 in
(1012 mb)
Calm - 10SM
22:54
Mostly Cloudy
63°F / 17°C 61°F / 16°C 94% 29.89 in
(1012 mb)
SW 3.5 mph
(SW 6 kph)
- 10SM
22:35
Mostly Cloudy
63°F / 17°C 61°F / 16°C 94% 29.89 in
(1012 mb)
SSE 3.5 mph
(SSE 6 kph)
- 7SM
22:15
Clear
63°F / 17°C 61°F / 16°C 94% 29.89 in
(1012 mb)
SW 3.5 mph
(SW 6 kph)
- 10SM
21:54
Partly Cloudy
63°F / 17°C 61°F / 16°C 94% 29.89 in
(1012 mb)
SW 3.5 mph
(SW 6 kph)
- 10SM
21:35
Clear
63°F / 17°C 61°F / 16°C 94% 29.86 in
(1011 mb)
SW 3.5 mph
(SW 6 kph)
- 10SM
21:15
Clear
63°F / 17°C 61°F / 16°C 94% 29.86 in
(1011 mb)
SW 3.5 mph
(SW 6 kph)
- 10SM
20:55
Clear
63°F / 17°C 61°F / 16°C 94% 29.86 in
(1011 mb)
Calm - 10SM
20:34
Partly Cloudy
63°F / 17°C 61°F / 16°C 94% 29.83 in
(1010 mb)
SSE 4.6 mph
(SSE 7 kph)
- 10SM
20:15
Partly Cloudy
64°F / 18°C 61°F / 16°C 88% 29.83 in
(1010 mb)
SW 5.8 mph
(SW 9 kph)
- 10SM
19:55
Clear
64°F / 18°C 61°F / 16°C 88% 29.83 in
(1010 mb)
SSE 3.5 mph
(SSE 6 kph)
- 10SM
19:35
Partly Cloudy
64°F / 18°C 61°F / 16°C 88% 29.83 in
(1010 mb)
S 5.8 mph
(S 9 kph)
- 10SM
19:15
Partly Cloudy
63°F / 17°C 61°F / 16°C 94% 29.83 in
(1010 mb)
SW 6.9 mph
(SW 11 kph)
- 10SM
18:55
Partly Cloudy
64°F / 18°C 61°F / 16°C 88% 29.83 in
(1010 mb)
S 6.9 mph
(S 11 kph)
- 10SM
18:34
Partly Cloudy
64°F / 18°C 61°F / 16°C 88% 29.83 in
(1010 mb)
Calm - 10SM
18:15
Partly Cloudy
Thunder Storms
64°F / 18°C 59°F / 15°C 83% 29.83 in
(1010 mb)
SSE 6.9 mph
(SSE 11 kph)
- 10SM
17:55
Overcast
Light Rain
63°F / 17°C 59°F / 15°C 88% 29.86 in
(1011 mb)
S 5.8 mph
(S 9 kph)
- 7SM
17:34
Overcast
Thunder Storms
63°F / 17°C 57°F / 14°C 83% 29.89 in
(1012 mb)
S 9.2 mph
(S 15 kph)
- 2 1/2SM
17:15
Overcast
Light Rain
66°F / 19°C 57°F / 14°C 73% 29.89 in
(1012 mb)
SSW 15 mph
(SSW 24 kph)
- 10SM
16:55
Overcast
Thunder Storms
68°F / 20°C 57°F / 14°C 69% 29.89 in
(1012 mb)
SSW 15 mph
(SSW 24 kph)
- 10SM
16:34
Overcast
77°F / 25°C 55°F / 13°C 47% 29.86 in
(1011 mb)
SSW 27.6 mph
(SSW 44 kph)
- 10SM
16:15
Overcast
79°F / 26°C 55°F / 13°C 45% 29.83 in
(1010 mb)
SW 17.3 mph
(SW 28 kph)
- 10SM
15:54
Partly Cloudy
79°F / 26°C 55°F / 13°C 45% 29.83 in
(1010 mb)
SSE 19.6 mph
(SSE 32 kph)
- 10SM
15:35
Partly Cloudy
81°F / 27°C 55°F / 13°C 42% 29.8 in
(1009 mb)
SSE 20.7 mph
(SSE 33 kph)
- 10SM
15:14
Partly Cloudy
81°F / 27°C 55°F / 13°C 42% 29.8 in
(1009 mb)
S 23 mph
(S 37 kph)
- 10SM
14:54
Partly Cloudy
82°F / 28°C 55°F / 13°C 40% 29.83 in
(1010 mb)
S 19.6 mph
(S 32 kph)
- 10SM
14:35
Partly Cloudy
81°F / 27°C 55°F / 13°C 42% 29.83 in
(1010 mb)
S 18.4 mph
(S 30 kph)
- 10SM
14:14
Partly Cloudy
81°F / 27°C 55°F / 13°C 42% 29.83 in
(1010 mb)
SSE 21.9 mph
(SSE 35 kph)
- 10SM
13:54
Mostly Cloudy
81°F / 27°C 55°F / 13°C 42% 29.83 in
(1010 mb)
S 13.8 mph
(S 22 kph)
- 10SM
13:35
Mostly Cloudy
81°F / 27°C 55°F / 13°C 42% 29.83 in
(1010 mb)
S 17.3 mph
(S 28 kph)
- 10SM
13:15
Mostly Cloudy
81°F / 27°C 55°F / 13°C 42% 29.83 in
(1010 mb)
S 20.7 mph
(S 33 kph)
- 10SM
12:54
Mostly Cloudy
81°F / 27°C 55°F / 13°C 42% 29.83 in
(1010 mb)
S 18.4 mph
(S 30 kph)
- 10SM
12:35
Partly Cloudy
81°F / 27°C 54°F / 12°C 39% 29.83 in
(1010 mb)
S 18.4 mph
(S 30 kph)
- 10SM
12:15
Partly Cloudy
81°F / 27°C 54°F / 12°C 39% 29.86 in
(1011 mb)
S 23 mph
(S 37 kph)
- 10SM
11:55
Mostly Cloudy
77°F / 25°C 54°F / 12°C 44% 29.86 in
(1011 mb)
S 16.1 mph
(S 26 kph)
- 10SM
11:35
Partly Cloudy
79°F / 26°C 54°F / 12°C 42% 29.89 in
(1012 mb)
S 18.4 mph
(S 30 kph)
- 10SM
11:14
Mostly Cloudy
77°F / 25°C 54°F / 12°C 44% 29.89 in
(1012 mb)
S 20.7 mph
(S 33 kph)
- 10SM
10:55
Overcast
77°F / 25°C 54°F / 12°C 44% 29.89 in
(1012 mb)
S 21.9 mph
(S 35 kph)
- 10SM
10:34
Overcast
77°F / 25°C 54°F / 12°C 44% 29.89 in
(1012 mb)
S 19.6 mph
(S 32 kph)
- 10SM
10:15
Mostly Cloudy
75°F / 24°C 52°F / 11°C 44% 29.89 in
(1012 mb)
SSE 20.7 mph
(SSE 33 kph)
- 10SM
09:54
Overcast
73°F / 23°C 50°F / 10°C 44% 29.92 in
(1013 mb)
S 16.1 mph
(S 26 kph)
- 10SM
09:35
Mostly Cloudy
75°F / 24°C 50°F / 10°C 41% 29.92 in
(1013 mb)
S 18.4 mph
(S 30 kph)
- 10SM
09:15
Partly Cloudy
73°F / 23°C 50°F / 10°C 44% 29.92 in
(1013 mb)
S 17.3 mph
(S 28 kph)
- 10SM
08:54
Partly Cloudy
72°F / 22°C 50°F / 10°C 47% 29.92 in
(1013 mb)
S 13.8 mph
(S 22 kph)
- 10SM
08:35
Partly Cloudy
72°F / 22°C 48°F / 9°C 44% 29.92 in
(1013 mb)
S 15 mph
(S 24 kph)
- 10SM
08:15
Clear
70°F / 21°C 48°F / 9°C 46% 29.92 in
(1013 mb)
S 13.8 mph
(S 22 kph)
- 10SM
07:55
Clear
68°F / 20°C 48°F / 9°C 49% 29.95 in
(1014 mb)
S 13.8 mph
(S 22 kph)
- 10SM
07:34
Clear
66°F / 19°C 46°F / 8°C 49% 29.95 in
(1014 mb)
S 12.7 mph
(S 20 kph)
- 10SM
07:15
Partly Cloudy
64°F / 18°C 46°F / 8°C 52% 29.95 in
(1014 mb)
S 13.8 mph
(S 22 kph)
- 10SM
06:54
Mostly Cloudy
64°F / 18°C 45°F / 7°C 49% 29.95 in
(1014 mb)
SSE 15 mph
(SSE 24 kph)
- 10SM
06:35
Clear
64°F / 18°C 45°F / 7°C 49% 29.95 in
(1014 mb)
S 13.8 mph
(S 22 kph)
- 10SM
06:14
Clear
63°F / 17°C 45°F / 7°C 52% 29.92 in
(1013 mb)
SSE 12.7 mph
(SSE 20 kph)
- 10SM
05:54
Clear
61°F / 16°C 45°F / 7°C 55% 29.92 in
(1013 mb)
S 12.7 mph
(S 20 kph)
- 10SM
05:35
Clear
59°F / 15°C 45°F / 7°C 59% 29.92 in
(1013 mb)
S 11.5 mph
(S 19 kph)
- 10SM
05:15
Clear
59°F / 15°C 45°F / 7°C 59% 29.92 in
(1013 mb)
S 10.4 mph
(S 17 kph)
- 10SM
04:54
Clear
59°F / 15°C 45°F / 7°C 59% 29.92 in
(1013 mb)
S 9.2 mph
(S 15 kph)
- 10SM
04:35
Clear
59°F / 15°C 43°F / 6°C 55% 29.92 in
(1013 mb)
S 9.2 mph
(S 15 kph)
- 10SM
04:15
Clear
59°F / 15°C 43°F / 6°C 55% 29.92 in
(1013 mb)
S 12.7 mph
(S 20 kph)
- 10SM
03:54
Clear
59°F / 15°C 43°F / 6°C 55% 29.92 in
(1013 mb)
S 12.7 mph
(S 20 kph)
- 10SM
03:35
Clear
59°F / 15°C 43°F / 6°C 55% 29.92 in
(1013 mb)
S 12.7 mph
(S 20 kph)
- 10SM
03:15
Clear
61°F / 16°C 43°F / 6°C 52% 29.92 in
(1013 mb)
S 13.8 mph
(S 22 kph)
- 10SM
02:55
Clear
61°F / 16°C 43°F / 6°C 52% 29.92 in
(1013 mb)
S 16.1 mph
(S 26 kph)
- 10SM
02:35
Clear
61°F / 16°C 43°F / 6°C 52% 29.92 in
(1013 mb)
S 12.7 mph
(S 20 kph)
- 10SM
02:15
Clear
63°F / 17°C 43°F / 6°C 49% 29.92 in
(1013 mb)
S 13.8 mph
(S 22 kph)
- 10SM
01:54
Clear
63°F / 17°C 43°F / 6°C 49% 29.92 in
(1013 mb)
S 12.7 mph
(S 20 kph)
- 10SM
01:35
Clear
63°F / 17°C 43°F / 6°C 49% 29.95 in
(1014 mb)
S 13.8 mph
(S 22 kph)
- 10SM
01:15
Clear
61°F / 16°C 43°F / 6°C 52% 29.95 in
(1014 mb)
S 11.5 mph
(S 19 kph)
- 10SM
00:54
Clear
61°F / 16°C 43°F / 6°C 52% 29.95 in
(1014 mb)
S 10.4 mph
(S 17 kph)
- 10SM
00:35
Clear
61°F / 16°C 43°F / 6°C 52% 29.95 in
(1014 mb)
S 9.2 mph
(S 15 kph)
- 10SM
00:15
Clear
63°F / 17°C 43°F / 6°C 49% 29.95 in
(1014 mb)
S 11.5 mph
(S 19 kph)
- 10SM
Time Weather Temperature Dewpoint Humidity Pressure Winds Precip Visibility


Weather for websites

WeatherForYou.com, LLC is not responsible for any damages or problems caused by this service. Current weather conditions are obtained from the closest station including government and personal stations which may have varying degrees of accuracy. Weather forecasts are derived from the NOAA NDFD. Like all things, this site belongs to Jesus Christ... He just trusts us to maintain it. If you have any questions or comments email webmaster@weatherforyou.com

Copyright © 2016, WeatherForYou.com LLC. All rights reserved.